Terminal Aerodrome Forecast
Issued by NWS

Home | Current Version | Previous Version | Text Only | Print | Product List | Glossary On
Versions: 1 2 3 4 5 6 7 8 9 10 11 12 13 14 15 16 17 18 19 20 21 22 23 24 25 26 27 28 29 30 31 32 33 34 35 36 37 38 39 40 41 42 43 44 45 46 47 48 49 50
000
FTUS43 KLOT 292200 AAC
TAFGYY
TAF AMD
KGYY 292214Z 2922/3018 14010KT P6SM VCTS BKN030CB BKN080
     FM300000 16010KT P6SM FEW035 SCT080
     FM300600 20009KT P6SM VCSH FEW035 BKN060
      TEMPO 3008/3012 -TSRA BKN035CB
     FM301600 22013G21KT P6SM VCSH BKN035=

USA.gov is the U.S. government's official web portal to all federal, state and local government web resources and services.